Location: Newark
(48.8833°N, 0.9236°W)
Time: 17:57:25
(UTC+00:00)

Tiros 1 despin weight - Pass Details

Date: 17 November 2019
Orbit: 594 x 642 km, 48.2° (Epoch: 10 December)

Event Time Altitude Azimuth Distance (km) Brightness Sun altitude
Rises 15:21:21 0° 248° (WSW) 2,827 ? 7.3°
Reaches altitude 10° 15:23:38 10° 246° (WSW) 1,930 ? 7.0°
Maximum altitude 15:28:00 65° 165° (SSE) 661 ? 6.5°
Drops below altitude 10° 15:32:27 10° 83° (E) 1,956 ? 5.9°
Sets 15:34:47 0° 81° (E) 2,869 ? 5.6°
